FENGYUN 1C DEB

Satellite information

Favourite Embed

Satellite Type and Status

DEBRISIN ORBIT

Key statistics

Satellite FENGYUN 1C DEB at a glance.

Uptime

9617

Days in orbit

Revolutions

≈ 14.1

Per day

Orbit

SSO

Sun Synchronous Orbit

Inclination

99.1

Latest

Satellite identification and parameters

Extended collection of information and parameters for FENGYUN 1C DEB.

Object identification

Identified? True

Debris? True

Object name: FENGYUN 1C DEB

International designator: 1999-025YB

Object number (NORAD): 30266

Object ID (CCSDS): 30266

Country: PEOPLES REPUBLIC OF CHINA (PRC)

Current information (Y/N): Y

RCS size: SMALL

Orbital parameters

Period: 101.814 minutes

Inclination: 99.051 deg

SMA: 7222.662 km

Apoapsis: 903.685 km

Periapsis: 785.368 km

RAAN: 312.6067 deg

Eccentricy: 0.00819071

Argument of periapsis: 340.0543 deg

Mean anomaly: 146.1604 deg

Mean motion: 14.14349877 rev/day

Mean motion (dot): 0.00003125 rev/day2

B* drag term: 0.001605503 1/REarth

Two-line elements (TLE)

Creation date: Sept. 7, 2025, 3:09 a.m.

Reference frame: TEME

Reference center: EARTH

Epoch: Sept. 6, 2025, 4:17 p.m. UTC

TLE line 0: 0 FENGYUN 1C DEB

TLE line 1: 1 30266U 99025YB 25249.67887270 .00003125 00000-0 16055-2 0 9999

TLE line 2: 2 30266 99.0510 312.6067 0081907 340.0543 146.1604 14.14349877954178

Live tracking on map

Real-time ground track for satellite FENGYUN 1C DEB.

In-orbit conjunctions

A list of the most updated potential collisions computed for object FENGYUN 1C DEB.

Target Orbit TCA Probability of collision Miss distance Type
INTERCOSMOS 22 LEO 2025-03-20 16:42:56 0.0002671949 148.0 (m) PAYLOAD
CZ-6A DEB LEO 2024-11-11 20:30:12 0.0006184736 197.0 (m) DEBRIS

Associated space launch

Chinese polar orbiting meteorological satellite

FENGYUN 1C DEB was lifted into orbit during the mission ‘Long March 4B | Feng Yun 1C’, on board a Long March 4B space rocket.

The launch took place on May 10, 1999, 1:33 a.m. from Launch Complex 7.

For more information about the launch, click the button.

Launch to space Long March 4B | Feng Yun 1C
Long March 4B | Feng Yun 1C

Agency: N/A

Status: Launch Successful

Launch date: May 10, 1999, 1:33 a.m. UTC

Rocket: Long March 4B

Launch pad: Launch Complex 7

Location: Taiyuan Satellite Launch Center, People's Republic of China

...

Latest news about this satellite

There are no fresh news available about this satellite. Check back as we update our databases every day.


Newsletter sign-up

Weekly statistics, charts and insights to help you stay on top of the space industry.